When you browse on this site, cookies collect data to enhance your experience and personalize the content and advertising you see.
Visit our Privacy Policy to learn more. By continuing to use the site, you agree to this use of cookies and data.
  • Em Portugal
  • Lista de países
  • Para 7 dias
  • Temperatura da água
  • Mapas de satélite
  • Mapa do tempo
  • Widgets de tempo
  • user-avatar
    Iniciar Sessão

    Previsão horária em Nemirov

    Hoje, 18 Junho, Terça-feira

    Tempo Temperatura Precipitação Vento Pressão Humidade
    00:00 +20°C° 0 mm 3 m/s 739 mmHg 95%
    01:00 +20°C° 0 mm 3 m/s 739 mmHg 96%
    02:00 +19°C° 0 mm 3 m/s 739 mmHg 97%
    03:00 +19°C° 0 mm 4 m/s 739 mmHg 96%
    04:00 +18°C° 0 mm 4 m/s 739 mmHg 96%
    05:00 +18°C° 0 mm 4 m/s 739 mmHg 96%
    06:00 +19°C° 0 mm 4 m/s 740 mmHg 93%
    07:00 +20°C° 0 mm 4 m/s 740 mmHg 90%
    08:00 +21°C° 0 mm 4 m/s 740 mmHg 87%
    09:00 +22°C° 0 mm 4 m/s 740 mmHg 82%
    10:00 +23°C° 0 mm 4 m/s 740 mmHg 77%
    11:00 +25°C° 0 mm 4 m/s 740 mmHg 72%
    12:00 +26°C° 0 mm 3 m/s 740 mmHg 70%
    13:00 +26°C° 0 mm 3 m/s 740 mmHg 69%
    14:00 +27°C° 0 mm 3 m/s 740 mmHg 67%
    15:00 +26°C° 0 mm 3 m/s 740 mmHg 69%
    16:00 +26°C° 0 mm 3 m/s 739 mmHg 70%
    17:00 +26°C° 0 mm 3 m/s 739 mmHg 72%
    18:00 +25°C° 0 mm 3 m/s 739 mmHg 78%
    19:00 +22°C° 0 mm 3 m/s 739 mmHg 84%
    20:00 +21°C° 0 mm 3 m/s 739 mmHg 89%
    21:00 +20°C° 0 mm 2 m/s 739 mmHg 91%
    22:00 +19°C° 0 mm 2 m/s 739 mmHg 92%
    23:00 +19°C° 0 mm 2 m/s 739 mmHg 93%

    Amanhã, 19 Junho, Quarta-feira

    Tempo Temperatura Precipitação Vento Pressão Humidade
    00:00 +18°C° 0 mm 2 m/s 739 mmHg 94%
    01:00 +18°C° 0 mm 2 m/s 739 mmHg 94%
    02:00 +18°C° 0 mm 2 m/s 739 mmHg 94%
    03:00 +18°C° 0 mm 2 m/s 739 mmHg 94%
    04:00 +18°C° 0 mm 2 m/s 739 mmHg 94%
    05:00 +18°C° 0 mm 2 m/s 739 mmHg 94%
    06:00 +19°C° 0 mm 2 m/s 739 mmHg 90%
    07:00 +21°C° 0 mm 3 m/s 739 mmHg 85%
    08:00 +22°C° 0 mm 3 m/s 740 mmHg 80%
    09:00 +24°C° 0 mm 3 m/s 739 mmHg 76%
    10:00 +25°C° 0 mm 3 m/s 739 mmHg 71%
    11:00 +26°C° 0 mm 3 m/s 739 mmHg 67%
    12:00 +26°C° 0 mm 3 m/s 739 mmHg 67%
    13:00 +27°C° 0 mm 3 m/s 739 mmHg 66%
    14:00 +27°C° 0 mm 3 m/s 739 mmHg 66%
    15:00 +27°C° 0 mm 3 m/s 739 mmHg 67%
    16:00 +27°C° 0 mm 3 m/s 738 mmHg 67%
    17:00 +27°C° 0 mm 3 m/s 738 mmHg 68%
    18:00 +25°C° 0 mm 2 m/s 738 mmHg 73%
    19:00 +24°C° 0 mm 2 m/s 738 mmHg 78%
    20:00 +21°C° 0 mm 2 m/s 738 mmHg 83%
    21:00 +21°C° 0 mm 2 m/s 738 mmHg 86%
    22:00 +20°C° 0 mm 2 m/s 738 mmHg 88%
    23:00 +19°C° 0 mm 2 m/s 738 mmHg 90%

    Depois de amanhã, 20 Junho, Quinta-feira

    Tempo Temperatura Precipitação Vento Pressão Humidade
    00:00 +19°C° 0 mm 2 m/s 738 mmHg 91%
    01:00 +19°C° 0 mm 2 m/s 738 mmHg 93%
    02:00 +18°C° 0 mm 2 m/s 738 mmHg 94%
    03:00 +18°C° 0 mm 2 m/s 738 mmHg 94%
    04:00 +18°C° 0 mm 2 m/s 738 mmHg 95%
    05:00 +18°C° 0 mm 2 m/s 738 mmHg 96%
    06:00 +20°C° 0 mm 2 m/s 738 mmHg 91%
    07:00 +21°C° 0 mm 2 m/s 738 mmHg 86%
    08:00 +24°C° 0 mm 2 m/s 738 mmHg 81%
    09:00 +25°C° 0 mm 2 m/s 738 mmHg 75%
    10:00 +26°C° 0 mm 2 m/s 738 mmHg 70%
    11:00 +27°C° 0 mm 2 m/s 738 mmHg 64%
    12:00 +28°C° 0.1 mm 2 m/s 738 mmHg 64%
    13:00 +28°C° 0.1 mm 3 m/s 738 mmHg 64%
    14:00 +28°C° 0.1 mm 3 m/s 737 mmHg 64%
    15:00 +28°C° 0.5 mm 3 m/s 737 mmHg 68%
    16:00 +27°C° 0.5 mm 3 m/s 737 mmHg 72%
    17:00 +27°C° 0.5 mm 4 m/s 737 mmHg 76%
    18:00 +25°C° 0.2 mm 3 m/s 737 mmHg 80%
    19:00 +24°C° 0.2 mm 3 m/s 737 mmHg 84%
    20:00 +23°C° 0.2 mm 2 m/s 737 mmHg 89%
    21:00 +21°C° 0 mm 2 m/s 737 mmHg 90%
    22:00 +21°C° 0 mm 2 m/s 737 mmHg 91%
    23:00 +20°C° 0 mm 2 m/s 737 mmHg 93%

    21 Junho, Sexta-feira

    Tempo Temperatura Precipitação Vento Pressão Humidade
    00:00 +20°C° 0 mm 2 m/s 737 mmHg 93%
    01:00 +19°C° 0 mm 2 m/s 737 mmHg 93%
    02:00 +19°C° 0 mm 2 m/s 737 mmHg 93%
    03:00 +19°C° 0 mm 2 m/s 737 mmHg 92%
    04:00 +19°C° 0 mm 2 m/s 737 mmHg 92%
    05:00 +19°C° 0 mm 2 m/s 737 mmHg 91%
    06:00 +20°C° 0 mm 2 m/s 738 mmHg 88%
    07:00 +23°C° 0 mm 2 m/s 738 mmHg 84%
    08:00 +24°C° 0 mm 3 m/s 738 mmHg 80%
    09:00 +26°C° 0.5 mm 3 m/s 738 mmHg 77%
    10:00 +27°C° 0.5 mm 3 m/s 738 mmHg 73%
    11:00 +28°C° 0.5 mm 3 m/s 739 mmHg 70%
    12:00 +28°C° 0.9 mm 4 m/s 738 mmHg 69%
    13:00 +28°C° 0.9 mm 4 m/s 738 mmHg 69%
    14:00 +28°C° 0.9 mm 4 m/s 738 mmHg 68%
    15:00 +28°C° 0.3 mm 4 m/s 738 mmHg 69%
    16:00 +28°C° 0.3 mm 4 m/s 738 mmHg 71%
    17:00 +27°C° 0.3 mm 3 m/s 737 mmHg 73%
    18:00 +26°C° 0 mm 3 m/s 737 mmHg 75%
    19:00 +25°C° 0 mm 2 m/s 737 mmHg 78%
    20:00 +24°C° 0 mm 2 m/s 737 mmHg 81%
    21:00 +23°C° 0 mm 2 m/s 738 mmHg 80%
    22:00 +21°C° 0 mm 2 m/s 738 mmHg 79%
    23:00 +20°C° 0 mm 3 m/s 738 mmHg 78%

    22 Junho, Sábado

    Tempo Temperatura Precipitação Vento Pressão Humidade
    00:00 +20°C° 0 mm 3 m/s 738 mmHg 79%
    01:00 +19°C° 0 mm 2 m/s 738 mmHg 79%
    02:00 +19°C° 0 mm 2 m/s 738 mmHg 80%
    03:00 +19°C° 0 mm 2 m/s 738 mmHg 80%
    04:00 +19°C° 0 mm 2 m/s 737 mmHg 80%
    05:00 +19°C° 0 mm 2 m/s 737 mmHg 80%
    06:00 +20°C° 0 mm 2 m/s 738 mmHg 77%
    07:00 +22°C° 0 mm 3 m/s 738 mmHg 74%
    08:00 +25°C° 0 mm 3 m/s 738 mmHg 70%
    09:00 +27°C° 0 mm 3 m/s 738 mmHg 67%
    10:00 +28°C° 0 mm 4 m/s 738 mmHg 64%
    11:00 +29°C° 0 mm 4 m/s 739 mmHg 61%
    12:00 +30°C° 0 mm 4 m/s 738 mmHg 59%
    13:00 +30°C° 0 mm 4 m/s 738 mmHg 57%
    14:00 +30°C° 0 mm 4 m/s 738 mmHg 56%
    15:00 +30°C° 0.1 mm 4 m/s 738 mmHg 59%
    16:00 +29°C° 0.1 mm 3 m/s 738 mmHg 63%
    17:00 +29°C° 0.1 mm 3 m/s 738 mmHg 67%
    18:00 +27°C° 0.3 mm 3 m/s 738 mmHg 72%
    19:00 +25°C° 0.3 mm 3 m/s 738 mmHg 77%
    20:00 +22°C° 0.3 mm 3 m/s 738 mmHg 82%
    21:00 +23°C° 0.1 mm 2 m/s 738 mmHg 83%
    22:00 +21°C° 0.1 mm 2 m/s 738 mmHg 84%
    23:00 +20°C° 0.1 mm 2 m/s 738 mmHg 85%

    23 Junho, Domingo

    Tempo Temperatura Precipitação Vento Pressão Humidade
    00:00 +20°C° 0.9 mm 2 m/s 738 mmHg 87%
    01:00 +20°C° 0.9 mm 1 m/s 738 mmHg 90%
    02:00 +20°C° 0.9 mm 1 m/s 738 mmHg 92%
    03:00 +20°C° 0.3 mm 1 m/s 738 mmHg 93%
    04:00 +20°C° 0.3 mm 1 m/s 738 mmHg 93%
    05:00 +19°C° 0.3 mm 2 m/s 738 mmHg 94%
    06:00 +21°C° 0 mm 1 m/s 738 mmHg 90%
    07:00 +22°C° 0 mm 1 m/s 738 mmHg 87%
    08:00 +24°C° 0 mm 1 m/s 738 mmHg 83%
    09:00 +24°C° 0.2 mm 1 m/s 738 mmHg 82%
    10:00 +24°C° 0.2 mm 2 m/s 738 mmHg 81%
    11:00 +24°C° 0.2 mm 2 m/s 738 mmHg 79%
    12:00 +25°C° 0.7 mm 3 m/s 738 mmHg 77%
    13:00 +26°C° 0.7 mm 3 m/s 738 mmHg 74%
    14:00 +26°C° 0.7 mm 3 m/s 738 mmHg 71%
    15:00 +26°C° 0.7 mm 3 m/s 738 mmHg 72%
    16:00 +26°C° 0.7 mm 3 m/s 738 mmHg 73%
    17:00 +27°C° 0.7 mm 3 m/s 738 mmHg 74%
    18:00 +25°C° 0.8 mm 2 m/s 738 mmHg 78%
    19:00 +24°C° 0.8 mm 2 m/s 738 mmHg 82%
    20:00 +23°C° 0.8 mm 1 m/s 738 mmHg 86%
    21:00 +22°C° 0.1 mm 1 m/s 738 mmHg 88%
    22:00 +22°C° 0.1 mm 1 m/s 738 mmHg 89%
    23:00 +21°C° 0.1 mm 1 m/s 738 mmHg 91%
    Mostrar mais